Hourly Data Report for October 22, 2014

All times are specified in Local Standard Time (LST). Add 1 hour to adjust for Daylight Saving Time where and when it is observed.

IQALUIT CLIMATE
NUNAVUT

63°44'50.000" N
68°32'40.000" W
33.50 m
2402592
71321
XFB

Download Data

Hourly Data (October 2014)
Hourly Data Report for October 22, 2014
Temp Definition
°C
Dew Point Temp Definition
°C
Rel Hum Definition
%
Wind Dir Definition
10's deg

Wind Spd Definition
km/h
Visibility Definition
km
Stn Press Definition
kPa
Hmdx Definition


Wind Chill Definition


Weather Definition


TIME
00:00 -3.7 -5.5 88 14 12   100.89   -8 LegendNANA
01:00 -3.0 -5.0 86 12 13   100.86   -8 LegendNANA
02:00 -2.4 -4.4 86 13 17   100.79   -8 LegendNANA
03:00 -2.4 -2.8 97 14 22   100.72   -9 LegendNANA
04:00 -2.1 -2.4 98 14 31   100.61   -9 LegendNANA
05:00 -2.1 -2.5 97 13 26   100.51   -9 LegendNANA
06:00 -1.5 -2.0 96 14 28   100.40   -8 LegendNANA
07:00 -0.9 -1.8 93 14 38   100.21   -8 LegendNANA
08:00 -1.0 -1.6 96 13 31   100.08   -8 LegendNANA
09:00 0.0 -1.5 90 14 29   100.01   -6 LegendNANA
10:00 0.9 -1.3 85 17 8   99.90     LegendNANA
11:00 2.5 -0.9 79 26 8   99.82     LegendNANA
12:00 2.6 -0.9 78 28 14   99.84     LegendNANA
13:00 2.8 -0.7 77 31 16   99.88     LegendNANA
14:00 2.4 -0.7 80 30 21   99.89     LegendNANA
15:00 2.0 -0.7 83 32 11   99.96     LegendNANA
16:00 2.1 -1.2 79 31 24   100.03     LegendNANA
17:00 1.0 -1.7 82 32 18   100.11     LegendNANA
18:00 0.4 -2.1 84 32 16   100.16     LegendNANA
19:00 -0.1 -2.3 85 33 13   100.23   -4 LegendNANA
20:00 -0.4 -2.1 88 31 10   100.30   -4 LegendNANA
21:00 -0.7 -2.1 90 33 16   100.32   -5 LegendNANA
22:00 -0.9 -2.4 90 33 19   100.35   -6 LegendNANA
23:00 -2.2 -3.9 88 34 26   100.43   -9 LegendNANA

Notes on Data Quality.

Legend

  • E = Estimated
  • M = Missing
  • NA = Not Available
  • ‡ = Partner data that is not subject to review by the National Climate Archives
Date modified: